User: anonymous   Login
Location: Unspecified
(0.0000°N, 0.0000°E)
Time: 12:31:49
(UTC+00:00)
Language:

XCUBESAT - Orbit

View from above orbital plane
View from above orbital plane
View from above satellite
View from above satellite

Ground track
Ground track

The orbit data is extracted from the following two-line orbital elements,

1 42707U 98067LQ  18347.68006687  .00101389  14963-4  31893-3 0  9990
2 42707  51.6248 145.7797 0003263 233.6549 126.4157 15.91302756 90288
Epoch (UTC): 13 December 2018 16:19:17
Eccentricity: 0.0003263
inclination: 51.6248°
perigee height: 296 km
apogee height: 301 km
right ascension of ascending node: 145.7797°
argument of perigee: 233.6549°
revolutions per day: 15.91302756
mean anomaly at epoch: 126.4157°
orbit number at epoch: 9028

The dashed part of the orbit path shows where the satellite is in the earth's shadow,  

DLR